Weather History for KULM - February, 2013

Change the Weather History Date:

Friday, February 22, 2013

  Actual Average Record
Temperature  
Mean Temperature 17 °F -  
Max Temperature 24 °F 34 °F 56 °F (1977)
Min Temperature 10 °F 16 °F -14 °F (1966)
Degree Days  
Heating Degree Days 48    
Moisture  
Dew Point 17 °F    
Average Humidity 84    
Maximum Humidity 93    
Minimum Humidity 68    
Precipitation  
Precipitation 0.01 in - - ()
Sea Level Pressure  
Sea Level Pressure 29.91 in    
Wind  
Wind Speed 9 mph (NNW)    
Max Wind Speed 13 mph    
Max Gust Speed 18 mph    
Visibility 6 miles    
Events Snow    
Averages and records for this station are not official NWS values.
T = Trace of Precipitation, MM = Missing Value Source: NWS Daily Summary

Daily Weather History Graph

Daily Weather History Graph

Search for Another Location

Airport or City:

Trip Planner

Search our weather history database for the weather conditions in past years. The results will help you decide how hot, cold, wet, or windy it might be!

Date:

Astronomy

Feb. 22, 2013 Rise Set
Actual Time 7:06 AM CST 5:57 PM CST
Civil Twilight 6:37 AM CST 6:26 PM CST
Nautical Twilight 6:03 AM CST 7:00 PM CST
Astronomical Twilight 5:29 AM CST 7:33 PM CST
Moon 3:05 PM CST (2/22) 4:56 AM CST (2/22)
Length of Visible Light 11h 49m
Length of Day
10h 50m
Waxing Gibbous, 90% of the Moon is Illuminated
Feb 22
Waxing Gibbous
Feb 25
Full
Mar 4
Last Quarter
Mar 11
New
Mar 19
First Quarter

Hourly Weather History & Observations

Time (CST) Temp. Windchill Dew Point Humidity Pressure Visibility Wind Dir Wind Speed Gust Speed Precip Events Conditions
12:13 AM 19.4 °F 9.5 °F 12.2 °F 74% 30.00 in 7.0 mi ENE 8.1 mph - N/A Snow Light Snow
12:33 AM 21.2 °F 11.7 °F 12.2 °F 68% 30.00 in 5.0 mi ENE 8.1 mph - N/A Snow Light Snow
12:53 AM 19.4 °F 8.6 °F 14.0 °F 80% 30.00 in 2.5 mi ENE 9.2 mph - N/A Snow Light Snow
1:13 AM 19.4 °F 7.2 °F 15.8 °F 86% 29.99 in 1.8 mi ENE 11.5 mph - N/A Snow Light Snow
1:33 AM 19.4 °F 9.5 °F 17.6 °F 93% 29.98 in 2.0 mi ENE 8.1 mph - N/A Snow Light Snow
1:53 AM 19.4 °F 7.9 °F 17.6 °F 93% 29.97 in 2.5 mi ENE 10.4 mph - N/A Snow Light Snow
2:13 AM 19.4 °F 7.9 °F 17.6 °F 93% 29.97 in 2.5 mi NE 10.4 mph - N/A Snow Light Snow
2:33 AM 19.4 °F 8.6 °F 17.6 °F 93% 29.96 in 2.5 mi NE 9.2 mph - 0.01 in Snow Light Snow
2:53 AM 19.4 °F 7.9 °F 17.6 °F 93% 29.95 in 1.2 mi NE 10.4 mph - 0.01 in Snow Light Snow
3:33 AM 21.2 °F 9.5 °F 17.6 °F 86% 29.93 in 1.8 mi NE 11.5 mph - N/A Snow Light Snow
3:53 AM 21.2 °F 8.9 °F 17.6 °F 86% 29.92 in 2.5 mi NE 12.7 mph 17.3 mph N/A Snow Light Snow
4:13 AM 21.2 °F 8.9 °F 17.6 °F 86% 29.91 in 2.0 mi NE 12.7 mph 16.1 mph N/A Snow Light Snow
4:33 AM 21.2 °F 10.1 °F 17.6 °F 86% 29.92 in 1.5 mi NE 10.4 mph - N/A Snow Light Snow
4:53 AM 21.2 °F 10.1 °F 17.6 °F 86% 29.91 in 1.8 mi NNE 10.4 mph 18.4 mph N/A Snow Light Snow
5:13 AM 21.2 °F 8.9 °F 17.6 °F 86% 29.91 in 1.8 mi NE 12.7 mph - N/A Snow Light Snow
5:33 AM 19.4 °F 8.6 °F 17.6 °F 93% 29.91 in 1.8 mi NNE 9.2 mph - N/A Snow Light Snow
6:13 AM 21.2 °F 10.1 °F 17.6 °F 86% 29.90 in 4.0 mi NNE 10.4 mph - N/A Snow Light Snow
6:33 AM 21.2 °F 11.7 °F 17.6 °F 86% 29.90 in 4.0 mi NNE 8.1 mph - N/A Snow Light Snow
6:53 AM 21.2 °F 11.7 °F 17.6 °F 86% 29.90 in 3.0 mi NNE 8.1 mph - N/A Snow Light Snow
7:13 AM 21.2 °F 10.9 °F 17.6 °F 86% 29.89 in 1.8 mi NNE 9.2 mph - N/A Snow Light Snow
7:33 AM 21.2 °F 11.7 °F 17.6 °F 86% 29.89 in 1.5 mi NNE 8.1 mph - N/A Snow Light Snow
7:52 AM 21.2 °F 11.7 °F 17.6 °F 86% 29.89 in 2.5 mi NNE 8.1 mph - N/A Snow Light Snow
8:13 AM 21.2 °F 11.7 °F 17.6 °F 86% 29.89 in 4.0 mi NNE 8.1 mph - N/A Snow Light Snow
8:33 AM 21.2 °F 10.9 °F 17.6 °F 86% 29.89 in 7.0 mi NNE 9.2 mph - N/A Snow Light Snow
8:52 AM 21.2 °F 11.7 °F 17.6 °F 86% 29.89 in 4.0 mi North 8.1 mph - N/A Snow Light Snow
9:13 AM 21.2 °F 12.6 °F 17.6 °F 86% 29.89 in 4.0 mi North 6.9 mph - N/A Snow Light Snow
9:33 AM 21.2 °F 10.9 °F 17.6 °F 86% 29.89 in 4.0 mi NNE 9.2 mph - N/A Snow Light Snow
9:52 AM 21.2 °F 10.9 °F 17.6 °F 86% 29.89 in 3.0 mi NNE 9.2 mph - N/A Snow Light Snow
10:13 AM 23.0 °F 14.7 °F 17.6 °F 80% 29.89 in 1.5 mi North 6.9 mph - N/A Snow Light Snow
10:33 AM 23.0 °F 13.9 °F 17.6 °F 80% 29.89 in 3.0 mi North 8.1 mph - N/A Snow Light Snow
10:52 AM 23.0 °F 14.7 °F 19.4 °F 86% 29.89 in 2.0 mi North 6.9 mph - N/A Snow Light Snow
11:13 AM 23.0 °F 13.9 °F 17.6 °F 80% 29.89 in 4.0 mi NNE 8.1 mph - N/A Snow Light Snow
11:33 AM 24.8 °F 17.9 °F 17.6 °F 74% 29.88 in 3.0 mi North 5.8 mph - N/A Snow Light Snow
11:52 AM 24.8 °F 16.9 °F 17.6 °F 74% 29.89 in 5.0 mi NNE 6.9 mph - N/A Snow Light Snow
12:13 PM 24.8 °F 20.5 °F 17.6 °F 74% 29.89 in 10.0 mi North 3.5 mph - N/A Snow Light Snow
12:32 PM 24.8 °F 19.1 °F 17.6 °F 74% 29.88 in 10.0 mi North 4.6 mph - N/A Snow Light Snow
12:53 PM 24.8 °F - 19.4 °F 80% 29.87 in 10.0 mi Calm Calm - N/A Snow Light Snow
1:13 PM 24.8 °F 16.9 °F 17.6 °F 74% 29.87 in 10.0 mi North 6.9 mph - N/A   Scattered Clouds
1:32 PM 24.8 °F 20.5 °F 17.6 °F 74% 29.87 in 10.0 mi North 3.5 mph - N/A   Mostly Cloudy
1:53 PM 24.8 °F 20.5 °F 17.6 °F 74% 29.87 in 10.0 mi North 3.5 mph - N/A   Mostly Cloudy
2:13 PM 24.8 °F 16.9 °F 19.4 °F 80% 29.88 in 10.0 mi NW 6.9 mph - N/A   Scattered Clouds
2:32 PM 24.8 °F 16.9 °F 17.6 °F 74% 29.88 in 10.0 mi NW 6.9 mph - N/A   Mostly Cloudy
2:53 PM 24.8 °F 16.9 °F 17.6 °F 74% 29.88 in 10.0 mi NW 6.9 mph - N/A   Mostly Cloudy
3:13 PM 24.8 °F 16.1 °F 19.4 °F 80% 29.88 in 10.0 mi NW 8.1 mph - N/A   Overcast
3:32 PM 24.8 °F 16.9 °F 19.4 °F 80% 29.88 in 10.0 mi NW 6.9 mph - N/A Snow Light Snow
3:53 PM 24.8 °F 14.6 °F 17.6 °F 74% 29.88 in 10.0 mi NW 10.4 mph - N/A Snow Light Snow
4:13 PM 24.8 °F 14.0 °F 19.4 °F 80% 29.89 in 10.0 mi WNW 11.5 mph - N/A Snow Light Snow
4:32 PM 24.8 °F 14.6 °F 19.4 °F 80% 29.89 in 7.0 mi West 10.4 mph - N/A Snow Light Snow
4:53 PM 24.8 °F 13.4 °F 19.4 °F 80% 29.90 in 3.0 mi WNW 12.7 mph - N/A Snow Light Snow
5:13 PM 23.0 °F 12.4 °F 19.4 °F 86% 29.90 in 4.0 mi WNW 10.4 mph - N/A Snow Light Snow
5:33 PM 23.0 °F 12.4 °F 19.4 °F 86% 29.91 in 7.0 mi WNW 10.4 mph - N/A Snow Light Snow
5:53 PM 23.0 °F 13.1 °F 19.4 °F 86% 29.91 in 7.0 mi WNW 9.2 mph - N/A Snow Light Snow
6:13 PM 21.2 °F 10.9 °F 19.4 °F 93% 29.91 in 7.0 mi WNW 9.2 mph - N/A Snow Light Snow
6:32 PM 21.2 °F 10.9 °F 17.6 °F 86% 29.91 in 10.0 mi West 9.2 mph - N/A Snow Light Snow
6:53 PM 21.2 °F 10.9 °F 17.6 °F 86% 29.90 in 10.0 mi WNW 9.2 mph - N/A Snow Light Snow
7:13 PM 19.4 °F 11.5 °F 15.8 °F 86% 29.90 in 7.0 mi WNW 5.8 mph - N/A Snow Light Snow
7:33 PM 17.6 °F 7.3 °F 15.8 °F 93% 29.90 in 7.0 mi WNW 8.1 mph - N/A Snow Light Snow
7:53 PM 19.4 °F 10.4 °F 15.8 °F 86% 29.90 in 10.0 mi WNW 6.9 mph - N/A Snow Light Snow
8:13 PM 12.2 °F 2.9 °F 10.4 °F 92% 29.90 in 10.0 mi West 5.8 mph - N/A Snow Light Snow
8:33 PM 12.2 °F 2.9 °F 10.4 °F 92% 29.90 in 10.0 mi WNW 5.8 mph - N/A Snow Light Snow
8:53 PM 10.4 °F 0.8 °F 6.8 °F 85% 29.91 in 10.0 mi West 5.8 mph - N/A Snow Light Snow
9:13 PM 12.2 °F 1.7 °F 10.4 °F 92% 29.90 in 10.0 mi WSW 6.9 mph - N/A Snow Light Snow
9:33 PM 15.8 °F 6.1 °F 12.2 °F 86% 29.90 in 10.0 mi West 6.9 mph - N/A Snow Light Snow
9:49 PM 17.6 °F 6.4 °F 15.8 °F 93% 29.90 in 10.0 mi West 9.2 mph - N/A   Overcast
10:13 PM 17.6 °F 6.4 °F 15.8 °F 93% 29.90 in 10.0 mi West 9.2 mph - N/A   Overcast
10:33 PM 19.4 °F 8.6 °F 15.8 °F 86% 29.89 in 10.0 mi West 9.2 mph - N/A Snow Light Snow
10:52 PM 19.4 °F 8.6 °F 15.8 °F 86% 29.89 in 10.0 mi West 9.2 mph - N/A Snow Light Snow
11:13 PM 19.4 °F 8.6 °F 15.8 °F 86% 29.89 in 10.0 mi West 9.2 mph - N/A Snow Light Snow
11:33 PM 17.6 °F 6.4 °F 15.8 °F 93% 29.89 in 10.0 mi WNW 9.2 mph - N/A   Overcast
11:52 PM 17.6 °F 5.7 °F 15.8 °F 93% 29.89 in 10.0 mi WNW 10.4 mph - N/A   Overcast